This is the latest recevied weather packets stored in our database for station/object K7AEL. If no packets are shown the sender has not sent any weather packets the latest 10 day(s).
| Time | Temp. | Humidity | Pressure | Rain* | Wind** | Luminosity | Snow |
|---|---|---|---|---|---|---|---|
| 1777400421 | 26.11° C | 19% | 1017.6 hPa | 0 mm | - | 720 W/m² | - |
| 1777400120 | 26.11° C | 21% | 1017.8 hPa | 0 mm | - | 712 W/m² | - |
| 1777399818 | 26.11° C | 21% | 1017.8 hPa | 0 mm | - | 710 W/m² | - |
| 1777399515 | 25.56° C | 21% | 1017.8 hPa | 0 mm | - | 702 W/m² | - |
| 1777399212 | 25.56° C | 23% | 1017.9 hPa | 0 mm | - | 697 W/m² | - |
| 1777398910 | 25° C | 23% | 1018 hPa | 0 mm | - | 691 W/m² | - |
| 1777398606 | 25.56° C | 23% | 1017.9 hPa | 0 mm | - | 689 W/m² | - |
| 1777398303 | 25° C | 24% | 1018.1 hPa | 0 mm | - | 681 W/m² | - |
| 1777398000 | 25° C | 23% | 1018.1 hPa | 0 mm | - | 668 W/m² | - |
| 1777397696 | 25° C | 23% | 1018 hPa | 0 mm | - | 649 W/m² | - |
| 1777397392 | 25° C | 23% | 1018 hPa | 0 mm | - | 653 W/m² | - |
| 1777397089 | 24.44° C | 24% | 1018.1 hPa | 0 mm | - | 645 W/m² | - |
| 1777396785 | 24.44° C | 23% | 1018.2 hPa | 0 mm | - | 620 W/m² | - |
| 1777396483 | 25° C | 23% | 1018.3 hPa | 0 mm | - | 624 W/m² | - |
| 1777396179 | 24.44° C | 24% | 1018 hPa | 0 mm | - | 614 W/m² | - |
| 1777395875 | 24.44° C | 24% | 1018.4 hPa | 0 mm | - | 596 W/m² | - |
| 1777395570 | 23.89° C | 24% | 1018.2 hPa | 0 mm | - | 571 W/m² | - |
| 1777395267 | 24.44° C | 24% | 1018.2 hPa | 0 mm | - | 565 W/m² | - |
| 1777394965 | 23.89° C | 24% | 1018.4 hPa | 0 mm | - | 552 W/m² | - |
| 1777394661 | 23.33° C | 26% | 1018.3 hPa | 0 mm | - | 538 W/m² | - |
| 1777394357 | 23.89° C | 24% | 1018.2 hPa | 0 mm | - | 517 W/m² | - |
| 1777394054 | 22.78° C | 25% | 1018.2 hPa | 0 mm | - | 515 W/m² | - |
| 1777393749 | 22.78° C | 25% | 1018.3 hPa | 0 mm | - | 518 W/m² | - |
| 1777393449 | 22.78° C | 25% | 1018.2 hPa | 0 mm | - | 492 W/m² | - |
| 1777393145 | 22.78° C | 25% | 1018.3 hPa | 0 mm | - | 470 W/m² | - |
* Rain latest hour (hover to see other rain measurements)
** Current wind speed in m/s (hover to see current wind gust speed)